Wind_Speed
22 23 24 25 27 27 27 25 23 23 23 23 23 23 23 23 24 25 23 22 21 21 20 20 19 19 19 19 19 19 18 17 16 15 15 13 13 12 12 12 12 11 11 10 10 9 8 8 7
24 25 26 26 28 28 27 26 26 25 25 25 24 25 25 25 25 26 24 23 23 23 22 22 22 21 21 21 21 21 20 19 18 17 16 15 14 13 13 12 12 12 12 12 11 11 10 9 9
26 27 27 28 29 28 27 27 27 27 27 26 26 27 27 26 26 27 26 25 25 24 24 24 23 23 23 22 22 22 21 20 19 18 17 17 16 15 14 13 13 13 13 12 12 12 11 10 10
27 28 29 29 29 29 28 28 29 30 29 28 29 29 28 28 27 27 27 26 26 26 26 25 25 25 24 24 23 23 22 21 21 20 18 18 17 16 15 15 14 14 14 13 13 13 12 11 11
28 30 30 30 30 29 29 29 30 31 30 30 31 30 30 29 29 29 28 27 27 27 27 27 27 26 25 25 24 24 23 22 22 21 20 19 18 17 16 16 15 14 14 14 14 14 13 13 12
29 30 31 31 30 30 30 30 31 31 31 31 32 32 31 30 30 30 29 28 28 28 28 28 27 27 26 26 25 25 24 23 22 22 21 20 19 18 18 17 16 16 15 15 15 15 15 14 14
30 31 31 31 31 30 30 30 32 32 31 32 33 33 32 31 31 30 30 29 29 29 29 28 28 28 28 27 26 25 25 24 24 22 21 21 20 20 19 18 17 16 16 16 15 16 15 15 15
30 31 30 30 31 31 30 31 31 32 32 33 34 34 32 31 32 31 30 30 30 29 29 29 29 29 29 28 27 26 26 25 25 24 22 22 21 20 19 18 18 17 16 16 16 16 16 16 16
30 31 29 29 30 30 30 31 31 31 31 33 34 33 32 32 32 31 30 30 30 30 29 29 28 29 29 29 28 27 27 27 26 25 24 23 22 21 20 19 19 18 17 17 17 17 17 17 17
31 30 28 28 29 30 30 31 31 31 31 32 33 33 32 31 32 31 30 30 30 30 29 29 29 29 29 28 28 28 28 28 27 27 25 24 23 22 21 20 20 19 18 17 18 18 18 18 18
31 30 28 28 29 30 30 30 30 31 31 31 31 30 31 31 30 30 30 30 30 30 30 30 30 29 28 29 29 29 29 29 28 28 26 26 25 23 22 21 20 20 19 19 19 19 19 19 19
32 30 29 29 29 29 30 29 30 31 30 30 30 30 30 30 29 29 29 29 29 30 29 30 30 29 29 29 30 30 29 29 29 29 27 26 26 25 24 22 21 20 20 20 20 20 20 20 21
31 30 30 30 30 29 29 29 29 29 29 30 30 30 29 29 29 28 28 29 28 29 28 29 29 29 30 30 30 30 30 29 30 29 28 27 27 26 24 23 22 22 21 21 22 22 22 21 21
31 30 30 29 29 28 29 29 29 27 28 29 28 29 29 28 28 28 27 28 28 28 28 28 28 29 30 31 31 31 30 29 30 31 29 28 27 27 25 24 23 23 22 22 22 22 22 22 22
31 31 30 29 29 28 29 28 28 27 28 28 28 29 29 27 28 28 27 27 27 28 27 28 28 29 30 32 32 32 30 30 30 31 30 29 29 29 28 27 25 24 23 23 23 23 22 22 23
32 32 31 28 28 27 29 28 27 28 29 29 28 28 27 27 27 27 27 27 27 28 28 28 29 29 30 32 33 32 30 30 31 31 30 29 29 29 29 28 26 25 25 25 24 24 24 24 24
34 33 30 28 27 28 29 27 27 28 29 30 30 28 26 26 26 26 26 27 27 28 29 28 28 29 30 31 32 31 31 30 30 31 31 30 30 30 30 30 28 26 25 25 25 25 25 25 26
33 32 30 29 28 28 28 27 27 28 29 30 30 29 27 26 26 26 26 26 26 27 29 28 28 29 31 32 31 30 31 31 30 30 31 31 31 31 31 31 30 28 27 26 26 27 27 27 28
33 33 31 29 29 29 29 28 27 28 29 30 29 30 29 28 28 27 26 27 28 28 28 27 28 29 31 32 31 29 29 29 30 31 31 31 31 31 31 30 31 30 29 28 28 29 29 29 29
34 34 32 31 30 30 30 29 28 29 29 28 29 29 30 29 29 27 26 26 28 27 26 26 27 29 30 31 31 30 30 29 29 29 31 31 32 32 32 31 31 31 31 30 30 30 30 30 29
36 34 33 33 32 32 32 31 29 29 29 29 29 29 29 29 28 28 27 26 27 26 26 27 27 28 30 31 31 30 30 29 29 30 30 31 31 32 32 32 33 32 32 31 31 31 31 31 31
37 34 34 34 34 34 34 34 30 30 29 30 29 29 29 30 29 28 27 26 26 26 26 28 28 29 30 31 31 31 31 31 31 31 32 33 33 33 34 34 34 33 33 33 33 33 33 33 33
37 35 35 35 35 36 35 36 31 30 30 30 30 29 29 30 30 29 28 28 27 27 27 28 29 30 31 32 32 31 31 33 33 32 32 33 34 35 35 35 35 35 34 34 34 34 35 35 35
38 37 36 36 36 38 35 36 34 31 29 29 30 30 30 30 30 29 29 29 29 29 28 27 29 31 31 32 33 31 32 33 34 33 34 35 35 35 35 36 36 36 36 36 36 36 37 37 37
39 39 38 38 38 39 35 37 35 31 30 29 29 30 30 31 32 31 30 29 30 30 29 28 29 31 32 33 34 32 32 34 35 35 36 37 37 36 37 37 37 37 37 37 37 37 38 39 39
38 39 39 38 37 37 36 38 34 32 31 30 30 31 31 30 31 31 31 30 31 30 29 29 30 31 32 32 33 33 33 34 35 35 36 38 38 39 38 38 38 39 40 40 40 40 40 41 41
38 39 37 37 37 38 38 38 35 33 32 30 30 31 32 30 30 31 31 30 31 31 30 30 30 31 32 32 32 31 32 32 33 33 35 37 39 39 40 40 40 41 42 43 42 42 43 43 43
39 37 37 37 38 39 38 37 36 33 33 31 30 31 32 31 30 31 31 31 32 32 32 31 31 31 32 32 33 32 32 33 33 34 35 36 37 39 39 41 42 42 43 44 44 44 44 44 45
39 39 38 38 38 37 37 36 35 33 33 32 32 31 32 33 32 32 32 32 32 33 33 33 32 32 33 33 34 33 33 33 33 35 36 38 39 40 41 42 42 43 44 45 45 46 46 46 47
40 40 39 39 39 38 37 36 34 34 33 33 32 31 32 33 33 32 32 33 33 34 34 35 35 35 35 36 36 36 36 36 36 36 36 37 38 40 41 41 42 43 44 45 45 46 47 47 48
Wind_Direction
254 254 255 255 255 256 258 258 257 255 255 255 255 255 255 255 254 254 255 254 252 249 248 248 247 246 246 244 242 241 241 240 240 238 237 233 230 229 229 230 231 229 228 228 228 230 231 231 233
255 256 256 256 256 258 259 259 257 257 258 257 257 255 254 255 255 254 254 254 252 251 249 248 248 247 246 244 242 241 241 241 240 241 239 236 233 232 232 231 232 232 232 231 232 233 236 236 237
256 257 257 257 258 260 262 260 259 259 258 258 257 255 255 255 256 255 254 253 252 250 249 248 247 246 245 244 243 242 241 241 240 240 240 237 235 236 236 235 235 236 235 234 235 235 237 238 239
257 258 259 259 261 262 261 260 259 258 257 257 256 256 256 256 256 256 254 253 251 249 248 247 246 245 245 244 244 243 242 241 240 239 239 237 237 237 236 238 239 239 237 236 237 238 239 240 242
258 258 260 262 263 262 260 259 258 258 258 257 255 255 255 255 254 255 254 253 249 248 247 247 246 245 245 244 244 243 241 240 240 238 239 237 236 237 236 238 240 240 237 237 238 239 242 244 247
261 261 262 263 264 262 260 260 259 260 259 256 255 255 254 253 253 254 253 251 249 248 247 247 246 245 243 242 242 241 240 238 239 239 238 235 235 237 238 239 240 241 239 238 240 240 244 246 249
263 264 264 263 263 261 260 260 260 260 259 256 255 254 253 253 253 253 252 250 247 247 248 247 246 244 242 241 241 239 238 237 237 237 236 235 237 238 237 238 240 240 240 239 239 240 244 247 250
264 264 265 264 263 261 262 261 261 260 258 256 254 253 253 253 253 252 251 250 248 248 248 247 245 243 242 240 238 237 236 235 234 235 237 235 237 236 237 238 241 239 239 238 240 243 245 248 250
264 265 266 266 265 263 263 262 261 260 259 258 256 254 253 251 251 251 250 249 248 246 246 244 243 242 241 239 236 235 235 234 233 233 236 235 237 238 237 239 241 241 240 240 243 246 248 250 251
264 266 267 267 266 265 264 263 261 259 259 258 256 253 251 249 249 250 249 248 246 246 244 241 240 240 238 237 235 233 232 233 233 233 235 237 237 239 238 238 241 244 244 243 245 248 250 251 253
265 265 266 265 266 266 266 263 260 258 258 256 254 250 248 249 250 250 249 247 246 245 243 239 238 238 236 234 233 231 231 233 233 234 235 237 237 238 238 238 242 246 247 246 247 250 253 254 256
265 264 264 264 264 266 266 263 259 257 257 256 250 248 246 247 249 249 247 246 245 243 241 238 236 235 234 232 232 231 231 233 233 234 236 238 238 237 237 239 242 245 248 249 248 251 255 258 259
264 262 262 263 264 266 267 263 259 257 257 254 249 247 246 246 247 249 245 245 243 240 238 236 234 233 232 229 229 229 231 233 232 233 237 240 239 238 239 240 242 245 249 252 252 254 257 261 262
264 261 261 261 263 265 265 263 258 257 255 251 248 246 245 244 246 247 244 242 240 238 237 235 233 232 231 229 228 229 231 233 233 233 236 238 236 237 238 243 245 246 250 252 254 256 258 261 262
262 261 260 261 262 263 264 261 257 254 253 249 246 244 244 243 245 245 244 241 239 237 235 233 231 232 231 229 228 229 231 233 234 234 236 237 237 238 240 244 247 248 251 253 256 256 259 263 263
261 261 261 262 262 262 262 261 258 253 251 247 244 243 244 243 243 243 243 240 238 235 233 233 232 233 232 230 230 229 232 233 234 235 236 237 238 238 241 244 247 249 252 255 256 257 260 264 266
260 261 261 262 260 260 260 260 256 253 250 247 246 244 242 243 242 243 241 239 237 234 234 233 233 235 234 231 230 230 233 235 235 233 235 237 239 241 243 245 247 250 253 257 259 259 261 264 267
261 260 261 261 261 259 259 258 255 253 249 247 246 243 240 240 241 242 239 238 236 234 234 233 234 235 235 231 231 233 234 236 235 233 234 239 241 242 243 244 247 251 255 258 261 261 262 265 267
259 258 259 259 260 259 259 257 255 253 249 247 246 244 240 238 240 241 240 238 237 236 236 235 235 235 235 233 233 235 236 236 236 235 236 240 242 242 244 246 247 251 254 258 262 265 265 267 268
255 256 257 259 259 258 258 256 255 253 250 249 246 245 243 239 240 241 241 240 239 238 237 235 235 235 234 234 235 239 239 238 238 238 240 242 244 245 247 249 251 252 255 259 264 267 269 269 269
253 255 257 259 258 257 258 256 254 251 248 247 246 244 244 241 239 240 241 241 239 240 239 236 236 236 234 234 238 240 241 240 239 239 240 242 245 246 249 252 253 254 256 259 263 266 269 271 270
253 254 257 256 256 256 257 258 252 251 247 245 245 244 243 241 239 240 240 241 239 237 236 236 237 238 237 237 239 242 242 241 240 241 243 245 247 250 251 253 253 254 257 259 262 266 269 271 271
252 253 255 253 255 256 255 258 253 251 248 245 246 245 243 242 241 241 241 241 241 238 236 238 239 239 237 238 240 245 246 243 242 243 245 248 251 252 254 255 253 255 258 261 263 267 269 271 271
251 251 252 253 254 254 253 257 256 251 249 247 246 246 244 243 241 241 243 242 240 238 237 239 240 240 239 240 242 247 247 245 244 246 248 250 251 253 254 255 255 257 259 262 265 267 270 272 272
247 247 250 252 252 253 254 255 256 254 251 249 248 247 245 244 241 241 242 243 242 240 239 240 242 242 241 242 243 248 250 248 247 249 250 251 252 254 255 255 257 259 260 263 265 268 270 271 272
246 246 249 252 254 254 254 255 255 254 252 250 249 248 246 244 242 242 243 243 241 242 242 243 243 244 243 245 245 248 251 250 249 251 253 253 255 255 256 257 259 260 261 263 265 268 271 272 272
246 246 247 251 253 255 254 256 255 254 252 250 250 249 248 247 245 244 246 245 242 241 243 245 245 244 244 246 249 253 252 251 252 254 254 255 256 256 257 260 261 263 264 266 267 268 270 271 272
246 248 247 248 251 253 255 256 256 255 253 251 249 249 249 249 248 247 246 246 243 242 243 246 246 246 246 247 251 254 253 254 255 255 255 255 256 258 260 262 263 264 266 268 269 269 271 271 272
243 244 245 248 250 251 255 256 257 257 253 252 250 250 250 250 250 249 248 248 245 243 245 247 247 248 248 247 249 252 255 258 259 258 258 258 259 262 263 263 264 266 267 270 270 271 270 271 271
243 243 244 246 248 249 252 254 254 255 254 254 253 251 252 251 252 252 250 248 247 244 245 247 248 248 248 249 250 254 255 257 259 261 262 263 263 263 264 264 266 268 269 270 271 271 271 272 272
Height
5814 5815 5816 5817 5818 5818 5819 5822 5823 5824 5824 5825 5826 5827 5828 5828 5829 5831 5831 5831 5833 5835 5836 5837 5839 5840 5841 5842 5844 5845 5847 5848 5849 5850 5852 5853 5854 5855 5856 5857 5858 5859 5860 5861 5862 5863 5863 5864 5865
5809 5810 5812 5812 5812 5812 5814 5816 5817 5818 5819 5820 5821 5822 5822 5823 5823 5824 5826 5827 5829 5830 5832 5833 5834 5836 5837 5839 5840 5842 5843 5845 5846 5848 5849 5851 5852 5853 5854 5855 5856 5857 5858 5859 5860 5861 5862 5863 5863
5804 5805 5806 5806 5806 5808 5809 5811 5812 5812 5813 5815 5816 5816 5817 5818 5818 5818 5820 5822 5824 5825 5827 5828 5830 5831 5833 5834 5836 5838 5840 5841 5843 5845 5846 5848 5849 5850 5852 5853 5854 5855 5856 5857 5858 5859 5860 5861 5862
5798 5799 5800 5801 5801 5803 5804 5805 5805 5806 5807 5808 5809 5810 5811 5813 5813 5813 5814 5816 5818 5820 5821 5823 5824 5826 5828 5830 5832 5834 5836 5838 5839 5841 5843 5844 5846 5848 5849 5850 5851 5852 5854 5855 5856 5857 5858 5859 5859
5792 5792 5793 5793 5795 5796 5797 5798 5798 5799 5800 5802 5802 5803 5805 5806 5806 5807 5809 5810 5812 5814 5815 5817 5819 5821 5823 5825 5827 5829 5831 5833 5835 5837 5839 5841 5843 5844 5846 5847 5848 5850 5851 5852 5853 5854 5855 5856 5857
5785 5785 5786 5786 5788 5789 5790 5791 5791 5792 5793 5794 5795 5796 5797 5799 5799 5801 5802 5804 5806 5808 5809 5811 5813 5815 5817 5819 5822 5824 5826 5829 5831 5833 5835 5837 5839 5841 5842 5844 5845 5846 5848 5849 5850 5851 5853 5853 5854
5778 5778 5778 5779 5780 5781 5783 5783 5783 5784 5785 5786 5787 5788 5790 5791 5793 5794 5795 5797 5799 5801 5803 5805 5807 5809 5811 5813 5816 5819 5821 5824 5827 5829 5831 5833 5835 5837 5839 5840 5842 5843 5845 5846 5847 5848 5849 5851 5852
5770 5771 5771 5772 5773 5774 5775 5775 5776 5777 5778 5778 5778 5780 5782 5784 5785 5787 5788 5790 5792 5794 5796 5798 5800 5802 5805 5808 5810 5813 5816 5820 5822 5825 5827 5829 5831 5833 5835 5837 5839 5840 5841 5843 5844 5845 5846 5847 5848
5762 5764 5764 5765 5765 5767 5767 5767 5768 5769 5769 5769 5770 5772 5774 5776 5777 5779 5781 5782 5784 5787 5789 5791 5793 5796 5799 5802 5805 5808 5811 5815 5818 5821 5823 5825 5827 5830 5831 5834 5835 5837 5838 5839 5841 5842 5843 5844 5845
5755 5756 5758 5758 5758 5759 5759 5759 5760 5761 5761 5761 5763 5764 5766 5768 5770 5772 5773 5775 5777 5779 5781 5784 5786 5789 5792 5796 5799 5802 5806 5809 5813 5816 5818 5821 5823 5826 5827 5829 5831 5833 5834 5836 5837 5838 5839 5840 5841
5748 5749 5751 5750 5750 5751 5751 5751 5751 5752 5753 5754 5755 5757 5759 5761 5763 5764 5766 5768 5769 5772 5774 5776 5780 5783 5786 5789 5793 5797 5800 5804 5807 5810 5813 5816 5819 5821 5823 5825 5827 5829 5831 5832 5833 5834 5835 5836 5837
5741 5742 5743 5743 5742 5743 5743 5743 5743 5744 5746 5747 5748 5749 5751 5753 5755 5757 5759 5760 5762 5764 5767 5770 5773 5776 5779 5783 5787 5791 5795 5798 5802 5805 5808 5811 5814 5817 5819 5821 5823 5825 5827 5828 5829 5830 5831 5832 5833
5733 5735 5735 5735 5735 5735 5735 5736 5736 5738 5739 5739 5741 5743 5744 5747 5749 5750 5752 5753 5755 5757 5760 5763 5767 5770 5774 5777 5781 5785 5789 5793 5796 5800 5803 5806 5809 5811 5814 5816 5819 5820 5822 5823 5825 5826 5827 5827 5828
5726 5727 5727 5727 5728 5728 5728 5729 5729 5732 5732 5733 5734 5736 5738 5740 5742 5743 5745 5747 5749 5751 5754 5757 5761 5764 5768 5771 5774 5779 5784 5787 5791 5794 5797 5800 5803 5806 5809 5812 5814 5816 5817 5819 5820 5821 5821 5823 5823
5718 5719 5719 5720 5720 5721 5721 5722 5724 5725 5725 5727 5729 5731 5732 5734 5736 5737 5739 5741 5743 5746 5749 5752 5755 5758 5762 5765 5769 5773 5777 5781 5785 5788 5792 5795 5798 5801 5804 5806 5809 5810 5812 5814 5815 5816 5817 5817 5818
5710 5710 5712 5714 5714 5714 5715 5716 5718 5718 5719 5721 5722 5724 5726 5728 5730 5732 5734 5736 5738 5741 5743 5746 5749 5753 5756 5760 5763 5767 5771 5775 5779 5782 5786 5789 5792 5795 5799 5801 5803 5805 5807 5808 5809 5810 5811 5812 5813
5702 5703 5705 5707 5707 5707 5707 5709 5712 5711 5712 5714 5715 5717 5720 5722 5724 5726 5728 5731 5733 5736 5738 5741 5744 5747 5751 5754 5757 5761 5766 5769 5773 5776 5780 5784 5787 5790 5793 5796 5798 5799 5801 5803 5804 5805 5806 5807 5807
5697 5698 5698 5699 5700 5700 5701 5703 5705 5705 5706 5708 5710 5712 5714 5717 5719 5721 5723 5725 5729 5731 5733 5736 5739 5742 5745 5748 5752 5756 5760 5764 5767 5770 5774 5778 5781 5783 5786 5789 5792 5794 5795 5797 5798 5799 5800 5800 5801
5689 5689 5691 5693 5693 5693 5694 5696 5698 5699 5700 5702 5704 5706 5708 5711 5714 5716 5718 5720 5723 5726 5728 5731 5734 5737 5740 5743 5747 5750 5754 5758 5761 5764 5768 5771 5774 5777 5780 5783 5786 5788 5789 5791 5792 5793 5793 5793 5794
5680 5682 5684 5686 5686 5686 5687 5689 5692 5692 5694 5696 5698 5700 5703 5705 5708 5711 5713 5716 5718 5721 5723 5726 5729 5732 5735 5739 5742 5745 5748 5752 5756 5759 5762 5765 5768 5771 5773 5776 5778 5781 5783 5784 5786 5786 5787 5787 5787
5672 5675 5677 5678 5678 5679 5680 5682 5685 5686 5688 5690 5692 5695 5697 5700 5703 5706 5708 5711 5714 5716 5719 5721 5724 5727 5730 5734 5737 5740 5743 5746 5750 5753 5756 5759 5762 5764 5767 5770 5772 5774 5776 5777 5778 5779 5780 5780 5780
5664 5668 5669 5670 5670 5671 5673 5673 5679 5680 5682 5685 5687 5689 5692 5695 5698 5701 5704 5706 5709 5711 5713 5716 5719 5722 5725 5728 5731 5734 5737 5740 5743 5746 5749 5752 5755 5758 5760 5762 5764 5766 5768 5769 5771 5772 5772 5772 5772
5657 5659 5661 5662 5662 5663 5665 5666 5672 5674 5676 5680 5682 5685 5687 5690 5693 5696 5698 5701 5703 5706 5708 5711 5714 5716 5719 5723 5726 5728 5731 5734 5737 5740 5742 5745 5748 5751 5753 5754 5757 5758 5760 5761 5763 5763 5764 5764 5764
5647 5650 5652 5652 5652 5654 5660 5660 5663 5668 5671 5674 5677 5679 5682 5684 5687 5690 5692 5695 5697 5699 5702 5705 5708 5711 5713 5716 5719 5722 5724 5727 5730 5733 5736 5739 5741 5743 5745 5747 5748 5750 5752 5753 5754 5755 5755 5755 5755
5637 5640 5642 5642 5643 5647 5653 5652 5657 5662 5665 5668 5670 5673 5676 5678 5681 5684 5687 5689 5691 5694 5696 5699 5702 5705 5708 5710 5713 5716 5718 5720 5723 5725 5728 5731 5733 5735 5737 5738 5740 5741 5743 5744 5745 5745 5746 5746 5746
5628 5631 5635 5636 5637 5641 5644 5644 5651 5655 5658 5661 5663 5666 5669 5672 5675 5677 5680 5683 5685 5688 5690 5693 5696 5698 5701 5704 5707 5709 5711 5713 5715 5717 5720 5722 5724 5726 5728 5729 5731 5732 5733 5734 5735 5735 5736 5736 5736
5618 5622 5627 5629 5630 5632 5634 5638 5643 5647 5650 5654 5656 5659 5662 5665 5668 5671 5673 5676 5678 5681 5684 5686 5689 5691 5694 5696 5699 5701 5703 5705 5707 5709 5711 5713 5715 5717 5718 5720 5721 5722 5723 5724 5725 5725 5725 5725 5725
5610 5614 5617 5619 5621 5623 5627 5631 5636 5640 5643 5646 5649 5652 5655 5658 5661 5663 5666 5669 5671 5674 5677 5680 5682 5684 5687 5689 5692 5694 5696 5698 5699 5701 5703 5704 5706 5707 5709 5710 5711 5712 5713 5713 5714 5714 5714 5714 5714
5601 5604 5607 5610 5613 5617 5620 5626 5628 5632 5636 5639 5642 5645 5647 5651 5653 5656 5659 5661 5664 5667 5670 5672 5675 5677 5680 5682 5684 5686 5688 5690 5691 5693 5694 5695 5697 5698 5699 5700 5700 5701 5702 5702 5702 5702 5702 5702 5702
5590 5594 5598 5602 5605 5609 5612 5620 5620 5624 5627 5630 5634 5637 5640 5643 5645 5648 5651 5654 5656 5659 5662 5664 5667 5670 5672 5675 5676 5678 5680 5681 5683 5684 5685 5686 5687 5688 5688 5689 5689 5690 5690 5690 5690 5690 5690 5690 5690